Regional Weather Roundup
Issued by NWS

Home | Current Version | Previous Version | Text Only | Print | Product List | Glossary Off
Versions: 1 2 3 4 5 6 7 8 9 10 11 12 13 14 15 16 17 18 19 20 21 22 23 24 25 26 27 28 29 30 31 32 33 34 35 36 37 38 39 40 41 42 43 44 45 46 47 48 49 50

000
ASUS43 KFSD 161910
RWRSD

WEATHER ROUNDUP FOR SOUTH DAKOTA
NATIONAL WEATHER SERVICE SIOUX FALLS SD
200 PM CDT MON OCT 16 2017

NOTE: "FAIR" INDICATES FEW OR NO CLOUDS BELOW 12,000 FEET WITH NO
SIGNIFICANT WEATHER AND/OR OBSTRUCTIONS TO VISIBILITY.


SDZ001>005-009-010-012>017-162000-
NORTHWEST AND NORTH CENTRAL SOUTH DAKOTA

CITY           SKY/WX    TMP DP  RH WIND       PRES   REMARKS
BUFFALO          N/A     68  29  23 W18       30.00F
FAITH            N/A     72  28  19 W13       30.04F
MOBRIDGE       SUNNY     71  39  31 S9        29.96F
$$

SDZ012>016-024>037-041>051-057-063-072>074-162000-
SOUTHWEST AND SOUTH CENTRAL SOUTH DAKOTA

CITY           SKY/WX    TMP DP  RH WIND       PRES   REMARKS
RAPID CTY ARPT SUNNY     74  26  16 N14G20    30.09F
PIERRE         SUNNY     63  38  39 W8        30.03F
CUSTER         SUNNY     66  20  17 NE9       30.17F
ELLSWORTH AFB  SUNNY     73  26  17 N8        30.08F
PHILIP         SUNNY     73  34  23 VRB6      30.05F
PINE RIDGE     SUNNY     72  23  16 W12G21    30.11F
SPEARFISH      FAIR      70  28  21 W15       30.13F
WINNER         FAIR      73  41  31 VRB6      30.06F
$$

SDZ004>011-016>023-039-040-162000-
NORTHEAST SOUTH DAKOTA

CITY           SKY/WX    TMP DP  RH WIND       PRES   REMARKS
ABERDEEN       SUNNY     64  40  41 S13       30.00F
WATERTOWN      SUNNY     65  38  36 S17       30.02F
BROOKINGS      SUNNY     66  37  34 S15G24    30.05F
SISSETON         N/A     69  36  29 SW16G25   29.97F
$$

SDZ017-020-022-023-036>040-048>070-162000-
SOUTHEAST SOUTH DAKOTA

CITY           SKY/WX    TMP DP  RH WIND       PRES   REMARKS
SIOUX FALLS    MOSUNNY   69  40  34 S21       30.08F
HURON          SUNNY     65  40  39 SW12      30.04F
CHAMBERLAIN    SUNNY     69  41  35 SW5       30.05F
MITCHELL       SUNNY     69  38  32 SW12      30.05F
YANKTON        SUNNY     73  35  25 SW16G25   30.08F
$$

ABBREVIATIONS USED IN REMARKS
   TC - TEMPERATURE IN CELSIUS
  WCI - WIND CHILL INDEX
   HX - HEAT INDEX
  VSB - VISIBILITY




USA.gov is the U.S. government's official web portal to all federal, state and local government web resources and services.